DBUZZ EDMO-EGGP

Flight info

Callsign DBUZZ
Flight time 1h 42m
Altitude 38000
Route TALAL T159 PETIX Z744 COSJE T892 RIDSU Z114 ADENU L608 DENUT L610 GILDA M14 STOAT L613 MOGLI UP6 LESTA
Aircraft C750/M-SBDE3FGHRWXY/S

Departure

Time 2026-04-12 09:20
Airport Oberpfaffenhofen Airport (EDMO)

Arrival

Time 2026-04-12 11:02
Airport Liverpool John Lennon Airport (EGGP)
Time Latitude Longitude Altitude Speed Heading
2026-04-12 08:38 48.08749 11.28423 1921 ft 0 kts 24°
2026-04-12 09:14 48.08761 11.28433 1921 ft 2 kts 33°
2026-04-12 09:15 48.08781 11.28464 1921 ft 6 kts 52°
2026-04-12 09:15 48.08816 11.28540 1921 ft 11 kts 59°
2026-04-12 09:15 48.08858 11.28674 1921 ft 17 kts 76°
2026-04-12 09:15 48.08862 11.28865 1921 ft 21 kts 85°
2026-04-12 09:16 48.08863 11.29017 1922 ft 0 kts 90°
2026-04-12 09:17 48.08863 11.29020 1922 ft 1 kts 90°
2026-04-12 09:17 48.08863 11.29047 1922 ft 5 kts 90°
2026-04-12 09:17 48.08864 11.29123 1922 ft 10 kts 90°
2026-04-12 09:18 48.08864 11.29243 1925 ft 13 kts 90°
2026-04-12 09:18 48.08840 11.29293 1925 ft 3 kts 218°
2026-04-12 09:18 48.08811 11.29253 1925 ft 13 kts 223°
2026-04-12 09:18 48.08555 11.28887 1927 ft 94 kts 223°
2026-04-12 09:19 48.07912 11.28003 1931 ft 148 kts 223°
2026-04-12 09:19 48.07097 11.26872 2081 ft 166 kts 223°
2026-04-12 09:19 48.06229 11.25664 2310 ft 181 kts 224°
2026-04-12 09:20 48.04234 11.22922 2494 ft 203 kts 224°
2026-04-12 09:20 48.03079 11.21471 2394 ft 233 kts 216°
2026-04-12 09:20 47.99954 11.21925 3890 ft 234 kts 136°
2026-04-12 09:21 47.99188 11.23890 5134 ft 213 kts 103°
2026-04-12 09:21 47.99264 11.26087 5850 ft 219 kts 71°
2026-04-12 09:21 48.00151 11.27946 6577 ft 223 kts 45°
2026-04-12 09:21 48.01299 11.29533 7343 ft 227 kts 43°
2026-04-12 09:22 48.02480 11.31149 8085 ft 232 kts 43°
2026-04-12 09:22 48.03876 11.32325 8738 ft 241 kts 12°
2026-04-12 09:22 48.05546 11.32368 9551 ft 240 kts 355°
2026-04-12 09:22 48.07241 11.32190 10217 ft 246 kts 355°
2026-04-12 09:23 48.08969 11.32079 10887 ft 250 kts 356°
2026-04-12 09:23 48.10703 11.32010 11754 ft 250 kts 354°
2026-04-12 09:23 48.12455 11.31922 12524 ft 254 kts 353°
2026-04-12 09:23 48.14228 11.31825 13329 ft 257 kts 352°
2026-04-12 09:24 48.16021 11.31730 14103 ft 259 kts 352°
2026-04-12 09:24 48.17819 11.31637 14801 ft 262 kts 351°
2026-04-12 09:24 48.19658 11.31541 15497 ft 266 kts 351°
2026-04-12 09:24 48.21518 11.31443 16220 ft 269 kts 351°
2026-04-12 09:25 48.23407 11.31344 16952 ft 272 kts 351°
2026-04-12 09:25 48.25314 11.31244 17693 ft 276 kts 351°
2026-04-12 09:25 48.27240 11.30987 18253 ft 283 kts 343°
2026-04-12 09:25 48.29267 11.30416 18393 ft 310 kts 342°
2026-04-12 09:26 48.31456 11.29803 18484 ft 337 kts 343°
2026-04-12 09:26 48.33860 11.29182 18524 ft 364 kts 345°
2026-04-12 09:26 48.36446 11.28521 18561 ft 388 kts 345°
2026-04-12 09:26 48.39177 11.27796 18664 ft 407 kts 345°
2026-04-12 09:27 48.41969 11.27054 19362 ft 407 kts 345°
2026-04-12 09:27 48.44769 11.26316 20056 ft 410 kts 345°
2026-04-12 09:27 48.47589 11.25567 20718 ft 414 kts 345°
2026-04-12 09:27 48.50448 11.24803 21376 ft 419 kts 345°
2026-04-12 09:28 48.53333 11.24034 22027 ft 423 kts 345°
2026-04-12 09:28 48.56241 11.23261 22701 ft 425 kts 346°
2026-04-12 09:28 48.59175 11.22477 23291 ft 429 kts 346°
2026-04-12 09:28 48.62135 11.21684 23827 ft 433 kts 346°
2026-04-12 09:29 48.65082 11.20895 24329 ft 435 kts 346°
2026-04-12 09:29 48.68061 11.20099 24818 ft 438 kts 346°
2026-04-12 09:29 48.71076 11.19289 25318 ft 441 kts 346°
2026-04-12 09:29 48.74118 11.18471 25814 ft 444 kts 346°
2026-04-12 09:30 48.77193 11.17644 26350 ft 447 kts 346°
2026-04-12 09:30 48.80247 11.16822 26880 ft 450 kts 346°
2026-04-12 09:30 48.83364 11.15981 27376 ft 454 kts 346°
2026-04-12 09:30 48.86451 11.15148 27873 ft 457 kts 346°
2026-04-12 09:31 48.89614 11.14293 28371 ft 461 kts 346°
2026-04-12 09:31 48.92801 11.13430 28848 ft 464 kts 346°
2026-04-12 09:31 48.95972 11.12570 29334 ft 468 kts 346°
2026-04-12 09:31 48.99212 11.11691 29824 ft 471 kts 345°
2026-04-12 09:32 49.02436 11.10815 30201 ft 476 kts 345°
2026-04-12 09:32 49.05667 11.09874 30615 ft 475 kts 342°
2026-04-12 09:32 49.08804 11.08312 31076 ft 470 kts 333°
2026-04-12 09:32 49.11728 11.06116 31655 ft 462 kts 324°
2026-04-12 09:33 49.14332 11.03421 32376 ft 451 kts 316°
2026-04-12 09:33 49.16669 11.00276 33203 ft 441 kts 311°
2026-04-12 09:33 49.18882 10.97135 33996 ft 435 kts 311°
2026-04-12 09:33 49.21107 10.94004 34654 ft 431 kts 311°
2026-04-12 09:34 49.23313 10.90875 35178 ft 430 kts 311°
2026-04-12 09:34 49.25498 10.87757 35823 ft 427 kts 311°
2026-04-12 09:34 49.27647 10.84691 36300 ft 426 kts 311°
2026-04-12 09:34 49.29825 10.81590 36772 ft 426 kts 312°
2026-04-12 09:35 49.31977 10.78523 37230 ft 426 kts 312°
2026-04-12 09:35 49.34084 10.75329 37672 ft 423 kts 307°
2026-04-12 09:35 49.35875 10.71742 38086 ft 421 kts 301°
2026-04-12 09:36 49.39373 10.64301 38082 ft 440 kts 302°
2026-04-12 09:36 49.42405 10.57888 38081 ft 454 kts 302°
2026-04-12 09:36 49.44889 10.52580 38093 ft 465 kts 302°
2026-04-12 09:37 49.46153 10.49881 38093 ft 470 kts 302°
2026-04-12 09:37 49.50042 10.41588 38091 ft 480 kts 302°
2026-04-12 09:38 49.53934 10.33239 38086 ft 483 kts 301°
2026-04-12 09:38 49.57836 10.24850 38074 ft 483 kts 301°
2026-04-12 09:39 49.61745 10.16417 38075 ft 483 kts 301°
2026-04-12 09:39 49.65658 10.07950 38073 ft 483 kts 301°
2026-04-12 09:40 49.69316 9.99374 38067 ft 478 kts 293°
2026-04-12 09:40 49.71539 9.89759 38068 ft 471 kts 279°
2026-04-12 09:41 49.72152 9.79762 38075 ft 467 kts 270°
2026-04-12 09:41 49.72421 9.69795 38086 ft 467 kts 270°
2026-04-12 09:42 49.72669 9.59762 38092 ft 467 kts 270°
2026-04-12 09:42 49.72913 9.49734 38099 ft 467 kts 269°
2026-04-12 09:43 49.73371 9.29745 38088 ft 465 kts 269°
2026-04-12 09:44 49.73587 9.19810 38091 ft 464 kts 269°
2026-04-12 09:44 49.73796 9.09784 38092 ft 464 kts 269°
2026-04-12 09:45 49.73995 8.99773 38090 ft 467 kts 268°
2026-04-12 09:45 49.74186 8.89813 38098 ft 466 kts 268°
2026-04-12 09:46 49.74368 8.79784 38100 ft 466 kts 268°
2026-04-12 09:46 49.74542 8.69749 38102 ft 466 kts 268°
2026-04-12 09:47 49.74707 8.59728 38100 ft 466 kts 268°
2026-04-12 09:47 49.74917 8.49705 38093 ft 468 kts 271°
2026-04-12 09:48 49.76230 8.39777 38093 ft 473 kts 280°
2026-04-12 09:48 49.77811 8.29886 38100 ft 473 kts 279°
2026-04-12 09:49 49.79400 8.19982 38103 ft 474 kts 279°
2026-04-12 09:49 49.80971 8.10102 38104 ft 478 kts 279°
2026-04-12 09:50 49.82619 8.00121 38101 ft 480 kts 281°
2026-04-12 09:50 49.84506 7.90178 38102 ft 480 kts 281°
2026-04-12 09:51 49.86346 7.80221 38096 ft 480 kts 281°
2026-04-12 09:51 49.88201 7.70251 38099 ft 480 kts 281°
2026-04-12 09:52 49.90017 7.60376 38085 ft 475 kts 281°
2026-04-12 09:52 49.91828 7.50557 38080 ft 476 kts 281°
2026-04-12 09:53 49.93619 7.40665 38099 ft 476 kts 281°
2026-04-12 09:53 49.95420 7.30750 38101 ft 477 kts 281°
2026-04-12 09:54 49.97234 7.20853 38105 ft 477 kts 284°
2026-04-12 09:54 50.00106 7.11397 38102 ft 486 kts 291°
2026-04-12 09:55 50.03211 7.02100 38078 ft 487 kts 292°
2026-04-12 09:55 50.06372 6.92763 38075 ft 486 kts 292°
2026-04-12 09:56 50.09484 6.83415 38074 ft 487 kts 292°
2026-04-12 09:56 50.12594 6.74125 38069 ft 486 kts 292°
2026-04-12 09:57 50.15700 6.64754 38077 ft 486 kts 291°
2026-04-12 09:57 50.18806 6.55383 38054 ft 486 kts 291°
2026-04-12 09:58 50.21905 6.45982 38060 ft 486 kts 291°
2026-04-12 09:58 50.24987 6.36609 38066 ft 483 kts 291°
2026-04-12 09:59 50.28051 6.27240 38056 ft 484 kts 291°
2026-04-12 09:59 50.31108 6.17869 38061 ft 484 kts 291°
2026-04-12 10:00 50.34145 6.08520 38069 ft 484 kts 291°
2026-04-12 10:00 50.37196 5.99096 38090 ft 484 kts 290°
2026-04-12 10:01 50.40218 5.89721 38063 ft 483 kts 290°
2026-04-12 10:01 50.43241 5.80313 38063 ft 483 kts 290°
2026-04-12 10:02 50.46262 5.70871 38063 ft 483 kts 290°
2026-04-12 10:02 50.49274 5.61423 38058 ft 483 kts 290°
2026-04-12 10:03 50.52283 5.51947 38065 ft 486 kts 289°
2026-04-12 10:03 50.55282 5.42472 38058 ft 487 kts 289°
2026-04-12 10:04 50.58289 5.32930 38055 ft 487 kts 289°
2026-04-12 10:04 50.61288 5.23375 38063 ft 486 kts 289°
2026-04-12 10:05 50.64278 5.13817 38070 ft 486 kts 289°
2026-04-12 10:05 50.67273 5.04195 38067 ft 490 kts 289°
2026-04-12 10:06 50.70254 4.94596 38064 ft 490 kts 289°
2026-04-12 10:06 50.73237 4.84939 38058 ft 489 kts 289°
2026-04-12 10:07 50.76216 4.75265 38061 ft 489 kts 288°
2026-04-12 10:07 50.79182 4.65587 38088 ft 493 kts 288°
2026-04-12 10:08 50.82161 4.55837 38076 ft 493 kts 288°
2026-04-12 10:08 50.85155 4.45986 38084 ft 499 kts 288°
2026-04-12 10:09 50.88158 4.36087 38084 ft 499 kts 288°
2026-04-12 10:09 50.91151 4.26161 38073 ft 499 kts 288°
2026-04-12 10:10 50.94136 4.16227 38070 ft 499 kts 288°
2026-04-12 10:10 50.97120 4.06255 38061 ft 499 kts 288°
2026-04-12 10:11 51.00087 3.96299 38039 ft 499 kts 287°
2026-04-12 10:11 51.03028 3.86389 38034 ft 499 kts 287°
2026-04-12 10:12 51.05979 3.76405 38036 ft 500 kts 287°
2026-04-12 10:12 51.08946 3.66323 38026 ft 502 kts 287°
2026-04-12 10:13 51.11900 3.56246 38022 ft 502 kts 287°
2026-04-12 10:13 51.14843 3.46161 38026 ft 502 kts 287°
2026-04-12 10:14 51.17754 3.36147 38020 ft 502 kts 287°
2026-04-12 10:14 51.20686 3.26005 38018 ft 505 kts 287°
2026-04-12 10:15 51.23622 3.15828 38018 ft 505 kts 287°
2026-04-12 10:15 51.26545 3.05636 38022 ft 505 kts 287°
2026-04-12 10:16 51.29460 2.95437 38028 ft 505 kts 287°
2026-04-12 10:16 51.32373 2.85192 38055 ft 506 kts 287°
2026-04-12 10:17 51.35103 2.74831 37988 ft 499 kts 281°
2026-04-12 10:17 51.36591 2.64108 37995 ft 493 kts 274°
2026-04-12 10:18 51.37927 2.53348 37999 ft 493 kts 275°
2026-04-12 10:18 51.39219 2.42652 38007 ft 492 kts 274°
2026-04-12 10:19 51.40523 2.31878 37994 ft 491 kts 274°
2026-04-12 10:19 51.41812 2.21141 37983 ft 491 kts 274°
2026-04-12 10:20 51.43140 2.10389 37983 ft 492 kts 275°
2026-04-12 10:20 51.44432 1.99629 37980 ft 491 kts 274°
2026-04-12 10:21 51.45709 1.88850 37973 ft 492 kts 274°
2026-04-12 10:21 51.46952 1.78139 37970 ft 492 kts 274°
2026-04-12 10:22 51.48197 1.67333 37966 ft 492 kts 274°
2026-04-12 10:22 51.49224 1.58344 37967 ft 492 kts 274°
2026-04-12 10:23 51.50447 1.47565 37964 ft 492 kts 274°
2026-04-12 10:23 51.51663 1.36742 37962 ft 493 kts 274°
2026-04-12 10:24 51.52866 1.25967 37936 ft 493 kts 274°
2026-04-12 10:24 51.54064 1.15115 37932 ft 493 kts 274°
2026-04-12 10:25 51.55253 1.04259 37940 ft 492 kts 274°
2026-04-12 10:25 51.56424 0.93453 37943 ft 495 kts 274°
2026-04-12 10:26 51.57603 0.82485 37942 ft 499 kts 274°
2026-04-12 10:26 51.58771 0.71541 37944 ft 498 kts 274°
2026-04-12 10:27 51.59998 0.60595 37929 ft 503 kts 277°
2026-04-12 10:27 51.62749 0.50037 37926 ft 520 kts 294°
2026-04-12 10:28 51.67404 0.40956 37914 ft 538 kts 311°
2026-04-12 10:28 51.73671 0.33963 37901 ft 552 kts 324°
2026-04-12 10:29 51.80418 0.28125 37920 ft 552 kts 324°
2026-04-12 10:29 51.86810 0.21429 37900 ft 539 kts 315°
2026-04-12 10:30 51.92233 0.13172 37908 ft 533 kts 308°
2026-04-12 10:30 51.97600 0.04800 37904 ft 538 kts 313°
2026-04-12 10:31 52.03493 -0.02744 37748 ft 534 kts 320°
2026-04-12 10:31 52.06663 -0.05710 37407 ft 519 kts 326°
2026-04-12 10:31 52.09796 -0.08356 37040 ft 513 kts 326°
2026-04-12 10:31 52.12959 -0.11109 36648 ft 515 kts 324°
2026-04-12 10:32 52.16102 -0.13932 36249 ft 517 kts 324°
2026-04-12 10:32 52.19272 -0.16742 35750 ft 519 kts 324°
2026-04-12 10:32 52.22466 -0.19513 35270 ft 520 kts 324°
2026-04-12 10:32 52.25657 -0.22301 34794 ft 520 kts 324°
2026-04-12 10:33 52.28783 -0.25223 34349 ft 514 kts 319°
2026-04-12 10:33 52.31607 -0.28719 33868 ft 504 kts 310°
2026-04-12 10:33 52.34061 -0.32754 33306 ft 494 kts 303°
2026-04-12 10:33 52.36307 -0.36943 32785 ft 495 kts 302°
2026-04-12 10:34 52.38611 -0.41193 32249 ft 496 kts 303°
2026-04-12 10:34 52.40921 -0.45391 31723 ft 496 kts 303°
2026-04-12 10:34 52.43223 -0.49611 31085 ft 497 kts 303°
2026-04-12 10:34 52.45512 -0.53861 30466 ft 496 kts 302°
2026-04-12 10:35 52.47764 -0.58043 29860 ft 497 kts 302°
2026-04-12 10:35 52.50066 -0.62293 29133 ft 497 kts 303°
2026-04-12 10:35 52.52366 -0.66547 28450 ft 499 kts 303°
2026-04-12 10:35 52.54674 -0.70840 27759 ft 499 kts 303°
2026-04-12 10:36 52.56979 -0.75140 27077 ft 501 kts 303°
2026-04-12 10:36 52.59250 -0.79367 26413 ft 490 kts 304°
2026-04-12 10:36 52.61437 -0.83398 25758 ft 456 kts 304°
2026-04-12 10:36 52.63473 -0.87194 25102 ft 428 kts 303°
2026-04-12 10:37 52.65396 -0.90845 24467 ft 418 kts 303°
2026-04-12 10:37 52.67314 -0.94490 23839 ft 423 kts 303°
2026-04-12 10:37 52.69269 -0.98149 23212 ft 425 kts 304°
2026-04-12 10:37 52.71230 -1.01808 22535 ft 428 kts 305°
2026-04-12 10:38 52.73195 -1.05513 21843 ft 429 kts 305°
2026-04-12 10:38 52.75158 -1.09233 21188 ft 430 kts 305°
2026-04-12 10:38 52.77132 -1.12966 20550 ft 434 kts 306°
2026-04-12 10:38 52.79105 -1.16691 19910 ft 434 kts 307°
2026-04-12 10:39 52.81091 -1.20452 19277 ft 434 kts 307°
2026-04-12 10:39 52.83072 -1.24217 18669 ft 434 kts 307°
2026-04-12 10:39 52.85063 -1.28004 18027 ft 436 kts 307°
2026-04-12 10:39 52.87051 -1.31788 17331 ft 436 kts 307°
2026-04-12 10:40 52.89019 -1.35534 16649 ft 419 kts 307°
2026-04-12 10:40 52.90868 -1.39044 15966 ft 385 kts 307°
2026-04-12 10:40 52.92549 -1.42261 15302 ft 365 kts 306°
2026-04-12 10:40 52.94212 -1.45473 14638 ft 362 kts 306°
2026-04-12 10:41 52.95857 -1.48640 13995 ft 366 kts 307°
2026-04-12 10:41 52.97531 -1.51844 13355 ft 367 kts 307°
2026-04-12 10:41 52.99202 -1.55047 12692 ft 368 kts 307°
2026-04-12 10:41 53.00855 -1.58225 12051 ft 367 kts 306°
2026-04-12 10:42 53.02526 -1.61449 11789 ft 349 kts 306°
2026-04-12 10:42 53.04012 -1.64295 11784 ft 315 kts 306°
2026-04-12 10:42 53.05213 -1.67292 11747 ft 311 kts 290°
2026-04-12 10:42 53.05768 -1.70697 11767 ft 301 kts 276°
2026-04-12 10:43 53.06414 -1.77624 11184 ft 307 kts 276°
2026-04-12 10:43 53.06758 -1.81135 10681 ft 306 kts 276°
2026-04-12 10:43 53.07093 -1.84605 10182 ft 303 kts 276°
2026-04-12 10:44 53.07421 -1.88074 9772 ft 299 kts 276°
2026-04-12 10:44 53.07744 -1.91494 9770 ft 303 kts 276°
2026-04-12 10:44 53.08070 -1.94927 9753 ft 297 kts 276°
2026-04-12 10:44 53.08391 -1.98325 9763 ft 299 kts 276°
2026-04-12 10:45 53.08707 -2.01679 9757 ft 292 kts 275°
2026-04-12 10:45 53.09018 -2.05010 9756 ft 297 kts 276°
2026-04-12 10:45 53.09337 -2.08430 9769 ft 298 kts 276°
2026-04-12 10:45 53.09656 -2.11846 9771 ft 298 kts 276°
2026-04-12 10:46 53.09973 -2.15259 9773 ft 298 kts 276°
2026-04-12 10:46 53.10290 -2.18676 9771 ft 298 kts 276°
2026-04-12 10:46 53.10601 -2.22053 9770 ft 298 kts 276°
2026-04-12 10:46 53.10916 -2.25495 9399 ft 302 kts 276°
2026-04-12 10:47 53.11234 -2.28950 8851 ft 300 kts 276°
2026-04-12 10:47 53.11549 -2.32391 8312 ft 299 kts 276°
2026-04-12 10:47 53.11857 -2.35780 7808 ft 299 kts 276°
2026-04-12 10:47 53.12165 -2.39165 7328 ft 285 kts 276°
2026-04-12 10:48 53.12452 -2.42299 6831 ft 272 kts 276°
2026-04-12 10:48 53.12723 -2.45311 6757 ft 254 kts 275°
2026-04-12 10:48 53.12984 -2.48254 6757 ft 258 kts 275°
2026-04-12 10:48 53.13249 -2.51218 6756 ft 259 kts 275°
2026-04-12 10:49 53.13515 -2.54188 6759 ft 259 kts 275°
2026-04-12 10:49 53.13779 -2.57142 6769 ft 260 kts 276°
2026-04-12 10:49 53.14062 -2.60124 6771 ft 260 kts 276°
2026-04-12 10:49 53.14360 -2.63117 6772 ft 260 kts 277°
2026-04-12 10:50 53.14648 -2.66054 6764 ft 260 kts 277°
2026-04-12 10:50 53.15175 -2.68983 6557 ft 268 kts 287°
2026-04-12 10:50 53.15899 -2.71866 6052 ft 269 kts 289°
2026-04-12 10:50 53.16654 -2.74715 5516 ft 267 kts 290°
2026-04-12 10:51 53.17402 -2.77515 5010 ft 266 kts 290°
2026-04-12 10:51 53.18148 -2.80281 4477 ft 255 kts 290°
2026-04-12 10:51 53.18871 -2.82942 3997 ft 249 kts 290°
2026-04-12 10:51 53.19554 -2.85439 3974 ft 223 kts 290°
2026-04-12 10:52 53.20179 -2.87684 3973 ft 211 kts 290°
2026-04-12 10:52 53.20804 -2.89911 3979 ft 212 kts 290°
2026-04-12 10:52 53.21431 -2.92146 3977 ft 212 kts 291°
2026-04-12 10:52 53.22514 -2.93879 3929 ft 229 kts 329°
2026-04-12 10:53 53.24113 -2.94008 3912 ft 246 kts 11°
2026-04-12 10:53 53.25516 -2.92294 3941 ft 257 kts 53°
2026-04-12 10:53 53.26143 -2.89536 4015 ft 257 kts 78°
2026-04-12 10:53 53.26510 -2.86685 4011 ft 240 kts 79°
2026-04-12 10:54 53.26847 -2.84019 3845 ft 231 kts 80°
2026-04-12 10:54 53.27180 -2.81344 3087 ft 239 kts 79°
2026-04-12 10:54 53.27518 -2.78610 2450 ft 239 kts 79°
2026-04-12 10:54 53.27851 -2.75893 1966 ft 241 kts 80°
2026-04-12 10:55 53.28181 -2.73230 1959 ft 233 kts 80°
2026-04-12 10:55 53.28517 -2.70516 1976 ft 238 kts 80°
2026-04-12 10:55 53.28854 -2.67801 1994 ft 239 kts 79°
2026-04-12 10:55 53.29186 -2.65149 1974 ft 228 kts 80°
2026-04-12 10:56 53.29517 -2.62587 1970 ft 225 kts 80°
2026-04-12 10:56 53.29845 -2.60038 1980 ft 229 kts 79°
2026-04-12 10:56 53.30176 -2.57410 1969 ft 228 kts 79°
2026-04-12 10:56 53.30954 -2.55124 1920 ft 229 kts 41°
2026-04-12 10:57 53.32404 -2.54217 1887 ft 219 kts 354°
2026-04-12 10:57 53.33745 -2.55028 1958 ft 204 kts 321°
2026-04-12 10:57 53.34905 -2.56366 1970 ft 190 kts 310°
2026-04-12 10:57 53.35308 -2.58148 1918 ft 155 kts 259°
2026-04-12 10:58 53.34876 -2.59757 1977 ft 154 kts 245°
2026-04-12 10:58 53.34517 -2.61480 1971 ft 155 kts 257°
2026-04-12 10:58 53.34386 -2.63270 1984 ft 157 kts 261°
2026-04-12 10:58 53.34278 -2.65106 1978 ft 157 kts 262°
2026-04-12 10:59 53.34192 -2.66936 1980 ft 151 kts 263°
2026-04-12 10:59 53.34124 -2.68511 1884 ft 130 kts 262°
2026-04-12 10:59 53.34054 -2.70033 1713 ft 131 kts 262°
2026-04-12 10:59 53.33982 -2.71579 1539 ft 135 kts 262°
2026-04-12 11:00 53.33913 -2.73118 1341 ft 123 kts 262°
2026-04-12 11:00 53.33849 -2.74457 1162 ft 108 kts 261°
2026-04-12 11:00 53.33790 -2.75691 1024 ft 109 kts 262°
2026-04-12 11:00 53.33730 -2.76981 874 ft 111 kts 262°
2026-04-12 11:01 53.33672 -2.78271 716 ft 110 kts 263°
2026-04-12 11:01 53.33610 -2.79548 581 ft 115 kts 262°
2026-04-12 11:01 53.33544 -2.80915 455 ft 116 kts 262°
2026-04-12 11:01 53.33493 -2.82146 236 ft 101 kts 261°
2026-04-12 11:02 53.33435 -2.83435 119 ft 116 kts 261°
2026-04-12 11:02 53.33374 -2.84639 92 ft 91 kts 265°
2026-04-12 11:02 53.33332 -2.85587 91 ft 73 kts 265°
2026-04-12 11:02 53.33307 -2.86159 92 ft 30 kts 265°
2026-04-12 11:03 53.33301 -2.86335 91 ft 5 kts 283°
2026-04-12 11:03 53.33315 -2.86374 92 ft 5 kts 304°
2026-04-12 11:03 53.33370 -2.86427 91 ft 12 kts 354°
2026-04-12 11:03 53.33412 -2.86431 91 ft 0 kts 357°
2026-04-12 11:04 53.33426 -2.86432 93 ft 5 kts 358°
2026-04-12 11:05 53.33463 -2.86387 91 ft 8 kts 65°
2026-04-12 11:05 53.33471 -2.86270 91 ft 13 kts 86°
2026-04-12 11:05 53.33479 -2.86090 91 ft 18 kts 85°
2026-04-12 11:05 53.33483 -2.85983 93 ft 13 kts 86°
2026-04-12 11:06 53.33502 -2.85928 93 ft 3 kts 11°
2026-04-12 11:06 53.33534 -2.85936 91 ft 8 kts 350°
2026-04-12 11:06 53.33591 -2.86038 91 ft 13 kts 261°
2026-04-12 11:06 53.33577 -2.86093 93 ft 2 kts 200°
2026-04-12 11:07 53.33570 -2.86092 92 ft 1 kts 173°
2026-04-12 11:07 53.33547 -2.86088 91 ft 4 kts 174°
2026-04-12 11:07 53.33537 -2.86086 93 ft 0 kts 174°